Regional Weather Roundup
Issued by NWS

Home | Current Version | Previous Version | Text Only | Print | Product List | Glossary Off
Versions: 1 2 3 4 5 6 7 8 9 10 11 12 13 14 15 16 17 18 19 20 21 22 23 24 25 26 27

000
ASUS45 KCYS 272110
RWRWY

WYOMING REGIONAL WEATHER ROUNDUP
NATIONAL WEATHER SERVICE CHEYENNE WY
300 PM MDT WED APR 27 2016

NOTE:  "FAIR" INDICATES FEW OR NO CLOUDS BELOW 12,000 FEET
WITH NO SIGNIFICANT WEATHER AND/OR OBSTRUCTIONS TO VISIBILITY.

WYZ001-272200-
YELLOWSTONE NATIONAL PARK

CITY           SKY/WX    TMP DP  RH WIND       PRES   REMARKS
LK YELLOWSTONE   N/A     33  26  75 SE6       29.89S WCI  28
W YELLOWSTONE  NOT AVBL

$$
WYZ002>013-054>058-071-098>099-272200-
NORTHERN WYOMING

CITY           SKY/WX    TMP DP  RH WIND       PRES   REMARKS
JACKSON        PTSUNNY   46  19  34 N5        29.83F
CODY           CLOUDY    37  34  87 N13       29.91S WCI  29
GREYBULL       CLOUDY    45  27  49 N18       29.89S
WORLAND        CLOUDY    43  34  70 NW9       29.90F
SHERIDAN       LGT RAIN  37  34  89 N18       29.93R WCI  27
BUFFALO        LGT SNOW  35  31  85 N22G33    29.89S VSB 1   WCI  23
GILLETTE       LGT SNOW  35  35 100 N13       29.88S FOG     WCI  26
HULETT         MIX PCPN  36  34  93 N13       29.88S WCI  27
NEWCASTLE      DRIZZLE   37  32  81 NW24      29.82S WCI  26

$$
WYZ014>020-022>026-101>103-272200-
CENTRAL WYOMING

CITY           SKY/WX    TMP DP  RH WIND       PRES   REMARKS
BIG PINEY      CLOUDY    44  29  55 SW7       29.84S
PINEDALE       MOCLDY    45  27  49 N6        29.83F
DUBOIS         CLOUDY    41  30  65 E10       29.84S
LANDER         CLOUDY    37  31  78 S7        29.87F WCI  32
RIVERTON       CLOUDY    40  31  70 S5        29.89S
CASPER         CLOUDY    38  25  59 MISG      29.89F
DOUGLAS        CLOUDY    37  30  75 NW14      29.88S WCI  28

$$
WYZ021-027>030-104>119-272200-
SOUTHERN WYOMING

CITY           SKY/WX    TMP DP  RH WIND       PRES   REMARKS
EVANSTON       LGT RAIN  41  30  65 S9        29.85R
KEMMERER         N/A     46  32  57 W14G21    29.84F
FORT BRIDGER   CLOUDY    45  37  76 NW15G23   29.88S
ROCK SPRINGS   FAIR      39  30  70 S6        29.86F WCI  35
DIXON          CLOUDY    45  31  57 NW3       29.87S
RAWLINS        PTSUNNY   40  30  67 MISG      29.86F
SARATOGA       CLOUDY    36  32  87 N14       29.87S WCI  27
LARAMIE        FAIR      33  27  78 N21       29.82S WCI  21
CHEYENNE       FAIR      39  27  62 N24G39    29.80F WCI  28
TORRINGTON     FAIR      45  29  53 NW26G38   29.81S
PINE BLUFFS    MOCLDY    46  30  53 NW26G35   29.80S

$$




USA.gov is the U.S. government's official web portal to all federal, state and local government web resources and services.